Time,TemperatureF,DewpointF,PressureIn,WindDirection,WindDirectionDegrees,WindSpeedMPH,WindSpeedGustMPH,Humidity,HourlyPrecipIn,Conditions,Clouds,dailyrainin,SoftwareType,DateUTC
2013-05-29 09:53:00,76.5,59.7,30.09,West,276,0.0,0.0,56,-99.99,,,-99.99,VWS V14.01,2013-05-29 13:53:00,
2013-05-29 09:58:00,76.8,59.7,30.09,WNW,284,0.0,0.0,56,-99.99,,,-99.99,VWS V14.01,2013-05-29 13:58:00,
2013-05-29 10:03:00,76.7,59.2,30.10,NW,308,6.8,7.8,55,-99.99,,,-99.99,VWS V14.01,2013-05-29 14:03:00,
2013-05-29 10:08:00,76.5,59.2,30.10,NW,308,9.9,11.9,55,-99.99,,,-99.99,VWS V14.01,2013-05-29 14:08:00,
2013-05-29 10:13:00,76.5,59.2,30.10,WNW,298,3.5,4.2,55,-99.99,,,-99.99,VWS V14.01,2013-05-29 14:13:00,
2013-05-29 10:18:00,76.7,59.5,30.10,West,269,0.0,5.2,55,-99.99,,,-99.99,VWS V14.01,2013-05-29 14:18:00,
2013-05-29 10:23:00,76.8,59.4,30.10,SW,235,6.2,8.0,55,-99.99,,,-99.99,VWS V14.01,2013-05-29 14:23:00,
2013-05-29 10:28:00,76.9,59.6,30.10,SSW,201,2.5,6.1,55,-99.99,,,-99.99,VWS V14.01,2013-05-29 14:28:00,
2013-05-29 10:33:00,77.2,59.3,30.10,NNE,27,8.7,10.4,54,-99.99,,,-99.99,VWS V14.01,2013-05-29 14:33:00,
2013-05-29 10:38:00,77.3,59.9,30.10,SE,125,7.0,8.0,55,-99.99,,,-99.99,VWS V14.01,2013-05-29 14:38:00,
2013-05-29 10:43:00,77.6,59.4,30.10,NNW,332,0.0,4.3,54,-99.99,,,-99.99,VWS V14.01,2013-05-29 14:43:00,
2013-05-29 10:48:00,77.8,59.3,30.10,West,277,1.5,4.5,53,-99.99,,,-99.99,VWS V14.01,2013-05-29 14:48:00,
2013-05-29 10:53:00,78.2,59.3,30.11,NNW,330,2.7,6.7,52,-99.99,,,-99.99,VWS V14.01,2013-05-29 14:53:00,
2013-05-29 10:58:00,78.3,59.3,30.11,NW,322,5.0,5.2,52,-99.99,,,-99.99,VWS V14.01,2013-05-29 14:58:00,
2013-05-29 11:03:00,78.5,59.6,30.11,WNW,283,8.5,12.4,52,-99.99,,,-99.99,VWS V14.01,2013-05-29 15:03:00,
2013-05-29 11:08:00,78.9,59.2,30.11,West,276,4.2,5.4,51,-99.99,,,-99.99,VWS V14.01,2013-05-29 15:08:00,
2013-05-29 11:13:00,78.9,59.4,30.11,WSW,240,0.0,0.0,51,-99.99,,,-99.99,VWS V14.01,2013-05-29 15:13:00,
2013-05-29 11:18:00,78.8,59.0,30.11,North,10,3.5,6.2,51,-99.99,,,-99.99,VWS V14.01,2013-05-29 15:18:00,
2013-05-29 11:23:00,79.1,59.2,30.11,SW,215,3.5,7.5,50,-99.99,,,-99.99,VWS V14.01,2013-05-29 15:23:00,
2013-05-29 11:28:00,79.3,59.2,30.11,WNW,290,5.2,7.1,50,-99.99,,,-99.99,VWS V14.01,2013-05-29 15:28:00,
2013-05-29 11:33:00,79.3,58.7,30.11,SSE,155,0.0,0.0,49,-99.99,,,-99.99,VWS V14.01,2013-05-29 15:33:00,
2013-05-29 11:38:00,79.3,59.1,30.11,SW,222,3.1,5.8,50,-99.99,,,-99.99,VWS V14.01,2013-05-29 15:38:00,
2013-05-29 11:43:00,79.3,59.5,30.10,WNW,301,7.3,8.7,51,-99.99,,,-99.99,VWS V14.01,2013-05-29 15:43:00,
2013-05-29 11:48:00,79.5,59.8,30.11,NW,326,0.0,0.0,51,-99.99,,,-99.99,VWS V14.01,2013-05-29 15:48:00,
2013-05-29 11:53:00,79.8,59.6,30.11,NW,309,4.3,8.1,50,-99.99,,,-99.99,VWS V14.01,2013-05-29 15:53:00,
2013-05-29 11:58:00,80.1,59.4,30.12,South,186,0.0,0.0,49,-99.99,,,-99.99,VWS V14.01,2013-05-29 15:58:00,
2013-05-29 12:03:00,80.8,59.6,30.12,NNW,342,4.7,6.2,48,-99.99,,,-99.99,VWS V14.01,2013-05-29 16:03:00,
2013-05-29 12:08:00,80.9,59.3,30.12,WNW,300,4.3,4.8,48,-99.99,,,-99.99,VWS V14.01,2013-05-29 16:08:00,
2013-05-29 12:13:00,80.9,59.0,30.12,North,350,5.5,10.3,47,-99.99,,,-99.99,VWS V14.01,2013-05-29 16:13:00,
2013-05-29 12:18:00,81.0,59.5,30.13,WSW,255,0.0,0.0,48,-99.99,,,-99.99,VWS V14.01,2013-05-29 16:18:00,
2013-05-29 12:23:00,80.9,59.2,30.13,NNW,328,0.0,0.0,48,-99.99,,,-99.99,VWS V14.01,2013-05-29 16:23:00,
2013-05-29 12:28:00,80.6,59.5,30.13,West,264,0.0,10.9,49,-99.99,,,-99.99,VWS V14.01,2013-05-29 16:28:00,
2013-05-29 12:33:00,80.1,59.3,30.13,WSW,245,0.0,0.0,49,-99.99,,,-99.99,VWS V14.01,2013-05-29 16:33:00,
2013-05-29 12:38:00,80.4,59.3,30.13,NW,316,8.5,14.0,49,-99.99,,,-99.99,VWS V14.01,2013-05-29 16:38:00,
2013-05-29 12:43:00,80.3,59.5,30.13,NNW,333,7.5,11.2,49,-99.99,,,-99.99,VWS V14.01,2013-05-29 16:43:00,
2013-05-29 12:48:00,80.4,59.7,30.13,NW,311,0.0,10.4,49,-99.99,,,-99.99,VWS V14.01,2013-05-29 16:48:00,
2013-05-29 12:53:00,80.5,59.8,30.13,WSW,250,4.3,5.5,49,-99.99,,,-99.99,VWS V14.01,2013-05-29 16:53:00,
2013-05-29 12:58:00,80.6,59.5,30.13,WNW,292,0.0,3.5,49,-99.99,,,-99.99,VWS V14.01,2013-05-29 16:58:00,
2013-05-29 13:03:00,80.7,59.8,30.14,WNW,285,5.3,9.8,49,-99.99,,,-99.99,VWS V14.01,2013-05-29 17:03:00,
2013-05-29 13:08:00,80.7,59.4,30.13,NW,314,7.5,9.4,48,-99.99,,,-99.99,VWS V14.01,2013-05-29 17:08:00,
2013-05-29 13:13:00,80.8,59.1,30.13,North,359,0.0,0.0,48,-99.99,,,-99.99,VWS V14.01,2013-05-29 17:13:00,
2013-05-29 13:18:00,81.2,59.0,30.13,NW,309,7.3,11.4,47,-99.99,,,-99.99,VWS V14.01,2013-05-29 17:18:00,
2013-05-29 13:23:00,80.9,58.6,30.13,NNW,328,4.7,7.1,47,-99.99,,,-99.99,VWS V14.01,2013-05-29 17:23:00,
2013-05-29 13:28:00,81.0,59.5,30.13,WNW,294,5.5,6.0,48,-99.99,,,-99.99,VWS V14.01,2013-05-29 17:28:00,
2013-05-29 13:33:00,81.3,59.0,30.13,WSW,249,0.0,0.0,47,-99.99,,,-99.99,VWS V14.01,2013-05-29 17:33:00,
2013-05-29 13:38:00,82.0,58.7,30.13,SSE,153,4.4,11.8,45,-99.99,,,-99.99,VWS V14.01,2013-05-29 17:38:00,
2013-05-29 13:43:00,82.0,58.2,30.12,WSW,246,0.0,0.0,44,-99.99,,,-99.99,VWS V14.01,2013-05-29 17:43:00,
2013-05-29 13:48:00,82.2,57.6,30.12,SW,231,0.0,0.0,43,-99.99,,,-99.99,VWS V14.01,2013-05-29 17:48:00,
2013-05-29 13:53:00,82.4,57.8,30.12,North,359,0.0,8.3,43,-99.99,,,-99.99,VWS V14.01,2013-05-29 17:53:00,
2013-05-29 13:58:00,82.6,58.2,30.11,NW,318,6.6,15.0,44,-99.99,,,-99.99,VWS V14.01,2013-05-29 17:58:00,
2013-05-29 14:02:00,82.7,58.3,30.11,SW,229,0.0,0.0,44,-99.99,,,-99.99,VWS V14.01,2013-05-29 18:02:00,
2013-05-29 14:07:00,82.7,56.6,30.11,WSW,242,7.0,7.1,41,-99.99,,,-99.99,VWS V14.01,2013-05-29 18:07:00,
2013-05-29 14:12:00,83.0,58.2,30.10,West,274,0.0,0.0,43,-99.99,,,-99.99,VWS V14.01,2013-05-29 18:12:00,
2013-05-29 14:17:00,83.4,56.9,30.10,West,281,0.0,10.8,40,-99.99,,,-99.99,VWS V14.01,2013-05-29 18:17:00,
2013-05-29 14:22:00,83.4,57.9,30.10,NNW,336,0.0,8.2,42,-99.99,,,-99.99,VWS V14.01,2013-05-29 18:22:00,
2013-05-29 14:27:00,83.4,57.5,30.11,NW,316,0.0,5.5,41,-99.99,,,-99.99,VWS V14.01,2013-05-29 18:27:00,
2013-05-29 14:32:00,83.4,56.2,30.10,ESE,103,0.0,0.0,40,-99.99,,,-99.99,VWS V14.01,2013-05-29 18:32:00,
2013-05-29 14:37:00,83.4,57.3,30.11,WNW,291,6.1,8.6,41,-99.99,,,-99.99,VWS V14.01,2013-05-29 18:37:00,
2013-05-29 14:42:00,83.5,57.8,30.11,WNW,294,5.1,8.3,42,-99.99,,,-99.99,VWS V14.01,2013-05-29 18:42:00,
2013-05-29 14:47:00,83.7,58.5,30.11,WNW,297,5.8,9.3,42,-99.99,,,-99.99,VWS V14.01,2013-05-29 18:47:00,
2013-05-29 14:52:00,83.6,57.9,30.11,West,278,0.0,5.2,42,-99.99,,,-99.99,VWS V14.01,2013-05-29 18:52:00,
2013-05-29 14:57:00,83.4,54.9,30.11,NW,307,0.0,4.7,38,-99.99,,,-99.99,VWS V14.01,2013-05-29 18:57:00,
2013-05-29 15:02:00,83.4,55.4,30.10,WNW,284,0.0,0.0,38,-99.99,,,-99.99,VWS V14.01,2013-05-29 19:02:00,
2013-05-29 15:07:00,83.0,56.1,30.10,NW,314,4.2,6.8,40,-99.99,,,-99.99,VWS V14.01,2013-05-29 19:07:00,
2013-05-29 15:12:00,82.7,57.2,30.10,East,101,5.6,7.7,42,-99.99,,,-99.99,VWS V14.01,2013-05-29 19:12:00,
2013-05-29 15:17:00,82.7,57.4,30.10,North,359,0.0,0.0,42,-99.99,,,-99.99,VWS V14.01,2013-05-29 19:17:00,
2013-05-29 15:22:00,83.3,56.5,30.10,SE,124,0.0,0.0,40,-99.99,,,-99.99,VWS V14.01,2013-05-29 19:22:00,
2013-05-29 15:27:00,83.4,57.4,30.10,NNW,340,0.0,2.4,41,-99.99,,,-99.99,VWS V14.01,2013-05-29 19:27:00,
2013-05-29 15:32:00,83.8,56.1,30.10,SW,224,1.2,8.0,39,-99.99,,,-99.99,VWS V14.01,2013-05-29 19:32:00,
2013-05-29 15:37:00,83.9,54.4,30.10,ESE,107,3.3,13.4,36,-99.99,,,-99.99,VWS V14.01,2013-05-29 19:37:00,
2013-05-29 15:42:00,84.2,55.7,30.11,SW,233,0.0,0.0,38,-99.99,,,-99.99,VWS V14.01,2013-05-29 19:42:00,
2013-05-29 15:47:00,84.6,56.3,30.11,WNW,291,8.8,8.8,38,-99.99,,,-99.99,VWS V14.01,2013-05-29 19:47:00,
2013-05-29 15:52:00,84.5,55.9,30.11,West,277,0.0,4.2,38,-99.99,,,-99.99,VWS V14.01,2013-05-29 19:52:00,
2013-05-29 15:57:00,84.6,53.7,30.11,WNW,290,5.9,8.5,35,-99.99,,,-99.99,VWS V14.01,2013-05-29 19:57:00,
2013-05-29 16:02:00,84.0,53.2,30.11,WSW,250,0.0,0.0,35,-99.99,,,-99.99,VWS V14.01,2013-05-29 20:02:00,
2013-05-29 16:07:00,83.9,54.0,30.10,WNW,291,0.0,4.8,36,-99.99,,,-99.99,VWS V14.01,2013-05-29 20:07:00,
2013-05-29 16:12:00,83.9,55.1,30.10,West,264,0.0,0.0,37,-99.99,,,-99.99,VWS V14.01,2013-05-29 20:12:00,
2013-05-29 16:17:00,84.1,55.8,30.10,WSW,256,0.0,0.0,38,-99.99,,,-99.99,VWS V14.01,2013-05-29 20:17:00,
2013-05-29 16:22:00,84.1,56.6,30.11,NNW,346,7.1,7.1,39,-99.99,,,-99.99,VWS V14.01,2013-05-29 20:22:00,
2013-05-29 16:27:00,84.0,56.2,30.11,NW,312,0.0,0.0,39,-99.99,,,-99.99,VWS V14.01,2013-05-29 20:27:00,
2013-05-29 16:46:00,83.3,56.1,30.11,NW,312,0.0,0.0,40,-99.99,,,-99.99,VWS V14.01,2013-05-29 20:46:00,
2013-05-29 16:51:00,83.4,56.2,30.10,WSW,243,5.0,5.6,40,-99.99,,,-99.99,VWS V14.01,2013-05-29 20:51:00,
2013-05-29 16:56:00,83.4,56.2,30.10,NW,315,14.3,14.9,39,-99.99,,,-99.99,VWS V14.01,2013-05-29 20:56:00,
2013-05-29 17:01:00,83.2,56.3,30.10,WNW,288,0.0,0.0,40,-99.99,,,-99.99,VWS V14.01,2013-05-29 21:01:00,
2013-05-29 17:06:00,83.0,56.6,30.10,WNW,288,5.2,5.2,40,-99.99,,,-99.99,VWS V14.01,2013-05-29 21:06:00,
2013-05-29 17:11:00,82.8,57.0,30.10,North,1,0.0,0.0,42,-99.99,,,-99.99,VWS V14.01,2013-05-29 21:11:00,
2013-05-29 17:16:00,82.7,56.9,30.10,NW,312,0.0,0.0,41,-99.99,,,-99.99,VWS V14.01,2013-05-29 21:16:00,
2013-05-29 17:21:00,82.5,57.0,30.10,WSW,242,0.0,5.2,42,-99.99,,,-99.99,VWS V14.01,2013-05-29 21:21:00,
2013-05-29 17:26:00,82.5,57.0,30.10,NNW,345,3.5,3.5,42,-99.99,,,-99.99,VWS V14.01,2013-05-29 21:26:00,
2013-05-29 17:31:00,82.5,56.9,30.09,North,353,5.4,7.3,42,-99.99,,,-99.99,VWS V14.01,2013-05-29 21:31:00,
2013-05-29 17:36:00,82.5,57.5,30.09,WNW,290,0.0,0.0,43,-99.99,,,-99.99,VWS V14.01,2013-05-29 21:36:00,
2013-05-29 17:41:00,82.7,57.5,30.09,NW,319,5.2,8.4,42,-99.99,,,-99.99,VWS V14.01,2013-05-29 21:41:00,
2013-05-29 17:46:00,82.7,58.0,30.09,NW,316,2.4,11.6,43,-99.99,,,-99.99,VWS V14.01,2013-05-29 21:46:00,
2013-05-29 17:51:00,82.7,57.8,30.09,NW,323,0.0,0.0,43,-99.99,,,-99.99,VWS V14.01,2013-05-29 21:51:00,
2013-05-29 17:56:00,82.6,57.9,30.09,ENE,77,0.0,0.0,43,-99.99,,,-99.99,VWS V14.01,2013-05-29 21:56:00,
2013-05-29 18:01:00,82.8,58.1,30.10,NW,314,0.0,0.0,43,-99.99,,,-99.99,VWS V14.01,2013-05-29 22:01:00,
2013-05-29 18:06:00,82.8,57.7,30.10,NNW,336,0.0,6.6,42,-99.99,,,-99.99,VWS V14.01,2013-05-29 22:06:00,
2013-05-29 18:11:00,82.7,57.6,30.10,South,173,0.0,3.2,42,-99.99,,,-99.99,VWS V14.01,2013-05-29 22:11:00,
2013-05-29 18:16:00,82.5,57.1,30.10,SW,236,0.0,7.5,42,-99.99,,,-99.99,VWS V14.01,2013-05-29 22:16:00,
2013-05-29 18:21:00,82.4,57.5,30.10,NNE,27,0.0,0.0,43,-99.99,,,-99.99,VWS V14.01,2013-05-29 22:21:00,
2013-05-29 18:26:00,82.1,56.8,30.10,NNE,27,0.0,0.0,42,-99.99,,,-99.99,VWS V14.01,2013-05-29 22:26:00,
2013-05-29 18:31:00,82.1,57.2,30.09,NW,304,0.0,0.0,43,-99.99,,,-99.99,VWS V14.01,2013-05-29 22:31:00,
2013-05-29 18:36:00,82.0,57.1,30.10,NE,34,5.7,5.7,43,-99.99,,,-99.99,VWS V14.01,2013-05-29 22:36:00,
2013-05-29 18:41:00,81.7,56.6,30.10,WNW,298,6.3,12.3,42,-99.99,,,-99.99,VWS V14.01,2013-05-29 22:41:00,
2013-05-29 18:46:00,81.5,56.5,30.10,NW,315,5.8,6.5,42,-99.99,,,-99.99,VWS V14.01,2013-05-29 22:46:00,
2013-05-29 18:51:00,81.5,56.7,30.10,WNW,288,0.0,4.8,43,-99.99,,,-99.99,VWS V14.01,2013-05-29 22:51:00,
2013-05-29 18:56:00,81.4,56.8,30.10,WNW,301,0.0,3.2,43,-99.99,,,-99.99,VWS V14.01,2013-05-29 22:56:00,
2013-05-29 19:01:00,81.3,57.0,30.10,WNW,301,0.0,0.0,43,-99.99,,,-99.99,VWS V14.01,2013-05-29 23:01:00,
2013-05-29 19:06:00,81.2,56.7,30.10,West,280,0.0,9.4,43,-99.99,,,-99.99,VWS V14.01,2013-05-29 23:06:00,
2013-05-29 19:11:00,81.2,57.0,30.10,North,1,0.0,0.0,44,-99.99,,,-99.99,VWS V14.01,2013-05-29 23:11:00,
2013-05-29 19:15:00,81.0,56.3,30.10,WSW,240,0.0,0.0,43,-99.99,,,-99.99,VWS V14.01,2013-05-29 23:15:00,
2013-05-29 19:20:00,81.0,56.6,30.10,WSW,240,0.0,0.0,43,-99.99,,,-99.99,VWS V14.01,2013-05-29 23:20:00,
2013-05-29 19:25:00,80.9,56.7,30.10,West,267,0.0,0.0,44,-99.99,,,-99.99,VWS V14.01,2013-05-29 23:25:00,
2013-05-29 19:30:00,80.7,56.8,30.09,West,267,0.0,0.0,44,-99.99,,,-99.99,VWS V14.01,2013-05-29 23:30:00,
2013-05-29 19:35:00,80.7,57.2,30.09,West,267,0.0,0.0,45,-99.99,,,-99.99,VWS V14.01,2013-05-29 23:35:00,
2013-05-29 19:40:00,80.6,57.4,30.09,West,267,0.0,0.0,45,-99.99,,,-99.99,VWS V14.01,2013-05-29 23:40:00,
2013-05-29 19:45:00,80.3,58.0,30.09,West,267,0.0,0.0,46,-99.99,,,-99.99,VWS V14.01,2013-05-29 23:45:00,
2013-05-29 19:50:00,79.9,57.3,30.09,West,267,0.0,0.0,46,-99.99,,,-99.99,VWS V14.01,2013-05-29 23:50:00,
2013-05-29 19:55:00,79.8,58.3,30.09,West,267,0.0,0.0,48,-99.99,,,-99.99,VWS V14.01,2013-05-29 23:55:00,
2013-05-29 20:00:00,79.5,58.6,30.09,West,267,0.0,0.0,49,-99.99,,,-99.99,VWS V14.01,2013-05-30 00:00:00,
2013-05-29 20:05:00,79.1,58.9,30.09,West,267,0.0,0.0,50,-99.99,,,-99.99,VWS V14.01,2013-05-30 00:05:00,
2013-05-29 20:10:00,78.6,59.3,30.09,West,267,0.0,0.0,52,-99.99,,,-99.99,VWS V14.01,2013-05-30 00:10:00,
2013-05-29 20:15:00,78.0,59.5,30.09,West,267,0.0,0.0,53,-99.99,,,-99.99,VWS V14.01,2013-05-30 00:15:00,
2013-05-29 20:20:00,77.7,59.8,30.09,West,267,0.0,0.0,54,-99.99,,,-99.99,VWS V14.01,2013-05-30 00:20:00,
2013-05-29 20:25:00,77.2,59.8,30.09,West,267,0.0,0.0,55,-99.99,,,-99.99,VWS V14.01,2013-05-30 00:25:00,
2013-05-29 20:30:00,76.8,59.8,30.09,West,267,0.0,0.0,56,-99.99,,,-99.99,VWS V14.01,2013-05-30 00:30:00,
2013-05-29 20:35:00,76.3,60.0,30.09,West,267,0.0,0.0,57,-99.99,,,-99.99,VWS V14.01,2013-05-30 00:35:00,
2013-05-29 20:40:00,75.7,59.8,30.09,West,267,0.0,0.0,58,-99.99,,,-99.99,VWS V14.01,2013-05-30 00:40:00,
2013-05-29 20:45:00,75.2,59.9,30.09,West,267,0.0,0.0,59,-99.99,,,-99.99,VWS V14.01,2013-05-30 00:45:00,
2013-05-29 20:50:00,74.4,59.5,30.09,West,267,0.0,0.0,60,-99.99,,,-99.99,VWS V14.01,2013-05-30 00:50:00,
2013-05-29 20:55:00,73.8,59.5,30.09,West,267,0.0,0.0,61,-99.99,,,-99.99,VWS V14.01,2013-05-30 00:55:00,
2013-05-29 21:00:00,73.3,59.4,30.09,West,267,0.0,0.0,62,-99.99,,,-99.99,VWS V14.01,2013-05-30 01:00:00,
2013-05-29 21:05:00,72.8,59.5,30.09,West,267,0.0,0.0,63,-99.99,,,-99.99,VWS V14.01,2013-05-30 01:05:00,
2013-05-29 21:10:00,72.5,59.6,30.10,West,267,0.0,0.0,64,-99.99,,,-99.99,VWS V14.01,2013-05-30 01:10:00,
2013-05-29 21:15:00,72.1,59.4,30.10,West,267,0.0,0.0,64,-99.99,,,-99.99,VWS V14.01,2013-05-30 01:15:00,
2013-05-29 21:20:00,71.9,59.5,30.10,West,267,0.0,0.0,65,-99.99,,,-99.99,VWS V14.01,2013-05-30 01:20:00,
2013-05-29 21:25:00,71.6,59.5,30.10,West,267,0.0,0.0,66,-99.99,,,-99.99,VWS V14.01,2013-05-30 01:25:00,
2013-05-29 21:30:00,71.4,59.2,30.10,West,267,0.0,0.0,66,-99.99,,,-99.99,VWS V14.01,2013-05-30 01:30:00,
2013-05-29 21:35:00,71.1,59.6,30.11,West,267,0.0,0.0,67,-99.99,,,-99.99,VWS V14.01,2013-05-30 01:35:00,